Location: Rounton
(54.4000°N, 1.3500°W)
Time: 13:39:47
(UTC+00:00)

Transit 2A - Pass Details

Date: 01 December 2021
Orbit: 591 x 967 km, 66.7° (Epoch: 21 January)

Event Time Altitude Azimuth Distance (km) Brightness Sun altitude
Rises 02:02:46 0° 227° (SW) 3,360 - -49.5°
Reaches altitude 10° 02:05:07 10° 230° (SW) 2,482 - -49.2°
Maximum altitude 02:10:56 74° 315° (NW) 950 - -48.5°
Exits shadow 02:16:36 13° 40° (NE) 2,450 9.0 -47.9°
Drops below altitude 10° 02:17:15 10° 41° (NE) 2,686 9.3 -47.8°
Sets 02:19:54 0° 43° (NE) 3,655 10.2 -47.5°
